Kahului, HI

3:55 AM HST on January 16, 2017 (GMT -1000)
Kahului

Weather History for PHOG - August, 2013

Change the Weather History Date:

Saturday, August 10, 2013

  Actual Average Record
Temperature  
Mean Temperature 81 °F 80 °F  
Max Temperature 86 °F 88 °F 96 °F (1951)
Min Temperature 75 °F 72 °F 61 °F (2009)
Degree Days  
Heating Degree Days 0 0  
Month to date heating degree days 0 0  
Since 1 June heating degree days 0 0  
Since 1 July heating degree days 0 0  
Cooling Degree Days 16 15  
Month to date cooling degree days 156 150  
Year to date cooling degree days 2458 2236  
Since 1 June cooling degree days 1074 977  
Growing Degree Days 30 (Base 50)    
Moisture  
Dew Point 74 °F    
Average Humidity 82    
Maximum Humidity 94    
Minimum Humidity 69    
Precipitation  
Precipitation 0.40 in 0.02 in 0.40 in (2013)
Month to date precipitation 0.52 0.18  
Year to date precipitation 8.64 10.38  
Snow  
Snow 0.00 in - - ()
Month to date snowfall 0.0  
Since 1 June snowfall 0.0  
Since 1 July snowfall 0.0  
Snow Depth 0.00 in    
Sea Level Pressure  
Sea Level Pressure 30.00 in    
Wind  
Wind Speed 15 mph (ENE)    
Max Wind Speed 24 mph    
Max Gust Speed 32 mph    
Visibility 8 miles    
Events Rain    
T = Trace of Precipitation, MM = Missing Value Source: NWS Daily Summary

Daily Weather History Graph

Daily Weather History Graph

Search for Another Location

Airport or City:

Trip Planner

Search our weather history database for the weather conditions in past years. The results will help you decide how hot, cold, wet, or windy it might be!

Date:

Astronomy

Aug. 10, 2013 Rise Set
Actual Time 6:03 AM HST 6:58 PM HST
Civil Twilight 5:39 AM HST 7:21 PM HST
Nautical Twilight 5:12 AM HST 7:49 PM HST
Astronomical Twilight 4:44 AM HST 8:17 PM HST
Moon 9:22 AM HST (8/10) 9:28 PM HST (8/10)
Length of Visible Light 13h 41m
Length of Day
12h 55m
Waxing Crescent, 15% of the Moon is Illuminated
Aug 10
Waxing Crescent
Aug 14
First Quarter
Aug 20
Full
Aug 27
Last Quarter
Sep 5
New

Hourly Weather History & Observations

Time (HST) Temp. Heat Index Dew Point Humidity Pressure Visibility Wind Dir Wind Speed Gust Speed Precip Events Conditions
12:24 AM 77.0 °F - 75.2 °F 94% 30.00 in 7.0 mi ENE 18.4 mph 27.6 mph 0.01 in Rain Light Rain
12:32 AM 77.0 °F - 75.2 °F 94% 30.00 in 8.0 mi ENE 18.4 mph 25.3 mph 0.01 in Rain Light Rain
12:40 AM 77.0 °F - 75.2 °F 94% 30.00 in 10.0 mi NE 16.1 mph 24.2 mph 0.01 in Rain Light Rain
12:49 AM 77.0 °F - 75.2 °F 94% 30.00 in 10.0 mi NE 17.3 mph 23.0 mph 0.01 in Rain Light Rain
12:54 AM 77.0 °F - 75.0 °F 94% 30.01 in 10.0 mi NE 18.4 mph 25.3 mph 0.01 in Rain Light Rain
1:30 AM - - - N/A% 29.99 in 4.0 mi NE 17.3 mph 24.2 mph 0.03 in Rain Rain
1:54 AM - - - N/A% 30.01 in 4.0 mi NE 21.9 mph 27.6 mph 0.06 in   Unknown
2:07 AM - - - N/A% 29.98 in 5.0 mi NE 17.3 mph - 0.01 in Rain Light Rain
2:16 AM - - - N/A% 29.98 in 6.0 mi NE 13.8 mph - 0.02 in   Unknown
2:54 AM - - - N/A% 29.99 in 10.0 mi NE 12.7 mph - 0.04 in   Overcast
3:54 AM - - - N/A% 29.99 in 10.0 mi East 10.4 mph - 0.01 in   Overcast
4:54 AM - - - N/A% 29.99 in 10.0 mi East 6.9 mph - 0.01 in   Overcast
5:54 AM 75.2 °F - 73.4 °F 94% 29.98 in 10.0 mi NE 13.8 mph - 0.02 in   Overcast
6:26 AM 75.2 °F - 73.4 °F 94% 29.98 in 5.0 mi ENE 8.1 mph - 0.00 in Rain Light Rain
6:54 AM 75.2 °F - 73.4 °F 94% 30.01 in 5.0 mi North 4.6 mph - 0.05 in Rain Rain
7:54 AM 75.2 °F - 73.4 °F 94% 30.02 in 5.0 mi ENE 10.4 mph - 0.12 in Rain Rain
8:28 AM 75.2 °F - 73.4 °F 94% 30.00 in 7.0 mi ENE 15.0 mph 21.9 mph 0.02 in Rain Light Rain
8:54 AM 77.0 °F - 73.4 °F 89% 30.03 in 6.0 mi ENE 8.1 mph - 0.08 in Rain Light Rain
9:54 AM 79.0 °F - 75.0 °F 88% 30.03 in 10.0 mi ENE 16.1 mph 26.5 mph 0.00 in   Overcast
10:54 AM 82.0 °F 89.4 °F 75.9 °F 82% 30.03 in 10.0 mi ENE 19.6 mph 27.6 mph 0.00 in   Mostly Cloudy
11:54 AM 82.9 °F 90.2 °F 75.0 °F 77% 30.01 in 10.0 mi ENE 19.6 mph 27.6 mph N/A   Mostly Cloudy
12:15 PM 82.4 °F 89.5 °F 75.2 °F 79% 30.00 in 10.0 mi ENE 18.4 mph 29.9 mph N/A   Mostly Cloudy
12:43 PM 84.2 °F 90.9 °F 73.4 °F 70% 29.99 in 10.0 mi ENE 17.3 mph 28.8 mph N/A   Mostly Cloudy
12:54 PM 84.9 °F 91.4 °F 73.0 °F 67% 30.00 in 10.0 mi ENE 25.3 mph 32.2 mph N/A   Mostly Cloudy
1:54 PM 82.0 °F 87.4 °F 73.0 °F 74% 29.99 in 10.0 mi ENE 20.7 mph 31.1 mph 0.00 in   Mostly Cloudy
2:54 PM 82.0 °F 86.7 °F 72.0 °F 71% 29.99 in 10.0 mi ENE 19.6 mph 26.5 mph N/A   Overcast
3:54 PM 82.9 °F 88.0 °F 72.0 °F 69% 29.97 in 10.0 mi ENE 18.4 mph 28.8 mph N/A   Mostly Cloudy
4:54 PM 82.9 °F 89.4 °F 73.9 °F 74% 29.97 in 10.0 mi ENE 18.4 mph - N/A   Mostly Cloudy
5:54 PM 81.0 °F 85.8 °F 73.0 °F 77% 29.99 in 10.0 mi ENE 18.4 mph 26.5 mph N/A   Scattered Clouds
6:54 PM 79.0 °F - 73.0 °F 82% 30.01 in 10.0 mi ENE 17.3 mph 25.3 mph N/A   Scattered Clouds
7:54 PM 78.1 °F - 73.0 °F 84% 30.02 in 10.0 mi ENE 16.1 mph - N/A   Partly Cloudy
8:54 PM 78.1 °F - 73.0 °F 84% 30.03 in 10.0 mi NE 17.3 mph - N/A   Partly Cloudy
9:54 PM 78.1 °F - 73.0 °F 84% 30.05 in 10.0 mi NE 13.8 mph 25.3 mph N/A   Clear
10:54 PM 78.1 °F - 73.9 °F 87% 30.06 in 10.0 mi ENE 12.7 mph 20.7 mph N/A   Mostly Cloudy
11:54 PM 77.0 °F - 73.0 °F 88% 30.04 in 10.0 mi NE 11.5 mph - N/A   Mostly Cloudy